Tracking 34346 objects as of 10-Jun-2026
HD Live streaming from Space Station
objects crossing your sky now

AAC-AIS-SAT3

Track AAC-AIS-SAT3 now!
10-day predictions


NORAD ID: 58997
Int'l Code: 2023-174DJ
Perigee: 617.5 km
Apogee: 625.8 km
Inclination: 97.6 °
Period: 97.0 minutes
Semi major axis: 6992 km
RCS: Unknown
Launch date: November 11, 2023
Source: United Kingdom (UK)
Launch site: AIR FORCE WESTERN TEST RANGE (AFWTR)
Your satellite tracking list
Your tracking list is empty




NASA's NSSDC Master Catalog

Two Line Element Set (TLE):
1 58997U 23174DJ  26161.59901196  .00002634  00000-0  31691-3 0  9999
2 58997  97.6244 210.5398 0005987 357.1690   2.9490 14.84704622140175
Source of the keplerian elements: AFSPC